This is the latest recevied weather packets stored in our database for station/object KJ4AJP. If no packets are shown the sender has not sent any weather packets the latest 10 day(s).
| Time | Temp. | Humidity | Pressure | Rain* | Wind** | Luminosity | Snow |
|---|---|---|---|---|---|---|---|
| 1777503463 | 20.56° C | 59% | 1013.4 hPa | 0 mm | - | 60 W/m² | - |
| 1777503159 | 20.56° C | 58% | 1013.2 hPa | 0 mm | - | 73 W/m² | - |
| 1777502857 | 20.56° C | 58% | 1013.2 hPa | 0 mm | - | 66 W/m² | - |
| 1777502554 | 20.56° C | 58% | 1013.2 hPa | 0 mm | - | 76 W/m² | - |
| 1777502251 | 20.56° C | 60% | 1013.2 hPa | 0 mm | - | 87 W/m² | - |
| 1777501948 | 20.56° C | 58% | 1013.1 hPa | 0 mm | - | 89 W/m² | - |
| 1777501645 | 21.11° C | 57% | 1013.1 hPa | 0 mm | - | 83 W/m² | - |
| 1777501342 | 21.11° C | 55% | 1013.4 hPa | 0 mm | - | 74 W/m² | - |
| 1777501040 | 21.67° C | 55% | 1013.4 hPa | 0 mm | - | 83 W/m² | - |
| 1777500738 | 21.67° C | 55% | 1013.2 hPa | 0 mm | - | 108 W/m² | - |
| 1777500434 | 22.78° C | 52% | 1013.1 hPa | 0 mm | - | 159 W/m² | - |
| 1777500130 | 22.78° C | 53% | 1013.2 hPa | 0 mm | - | 287 W/m² | - |
| 1777499828 | 22.78° C | 53% | 1013.4 hPa | 0 mm | - | 347 W/m² | - |
| 1777499523 | 23.33° C | 53% | 1013.5 hPa | 0 mm | - | 378 W/m² | - |
| 1777499221 | 23.33° C | 55% | 1013.6 hPa | 0 mm | - | 366 W/m² | - |
| 1777498918 | 22.78° C | 54% | 1013.6 hPa | 0 mm | - | 412 W/m² | - |
| 1777498615 | 22.22° C | 56% | 1013.6 hPa | 0 mm | - | 415 W/m² | - |
| 1777498310 | 22.22° C | 58% | 1013.5 hPa | 0 mm | - | 292 W/m² | - |
| 1777498009 | 22.22° C | 56% | 1013.5 hPa | 0 mm | - | 477 W/m² | - |
| 1777497705 | 22.78° C | 57% | 1013.6 hPa | 0 mm | - | 168 W/m² | - |
| 1777497402 | 22.78° C | 54% | 1013.7 hPa | 0 mm | - | 201 W/m² | - |
| 1777497098 | 22.22° C | 54% | 1013.9 hPa | 0 mm | - | 378 W/m² | - |
| 1777496795 | 22.22° C | 56% | 1013.7 hPa | 0 mm | - | 518 W/m² | - |
| 1777496492 | 21.67° C | 56% | 1013.7 hPa | 0 mm | - | 360 W/m² | - |
| 1777496188 | 22.22° C | 57% | 1013.9 hPa | 0 mm | - | 516 W/m² | - |
* Rain latest hour (hover to see other rain measurements)
** Current wind speed in m/s (hover to see current wind gust speed)